Weather observations for the past three days for
Mercury, Desert Rock Airport
Metric (Imperial)
Date Time (pdt) Wind (kph) Vis. (km) Weather Sky Cond. Temperature (ºC) Relative Humidity Wind Chill (°C) Heat Index (°C) Pressure Precipitation (cm)
Air Dwpt 6 hour altimeter (cm) sea level (mb) 1 hr 3 hr 6 hr
Max. Min.
03 23:53 S 24 G 46 16.09 Fair CLR 25 1.7 22% 25 75.74 1005.1
03 22:53 S 28 G 46 16.09 Fair CLR 25.6 1.1 31.1 25.6 20% 25 75.72 1004.8
03 21:53 S 30 G 44 16.09 Fair CLR 26.7 -1.7 15% 26 75.74 1005.1
03 20:53 S 26 G 44 16.09 Fair CLR 27.2 -2.2 14% 26 75.72 1004.8
03 19:53 SE 24 G 41 16.09 Fair CLR 27.8 -2.2 14% 26 75.72 1004.8
03 18:53 S 26 G 43 16.09 Fair CLR 28.9 -2.8 12% 27 75.72 1004.7
03 17:53 S 20 G 48 16.09 Fair CLR 30 -2.8 12% 28 75.74 1005.2
03 16:53 S 31 G 50 16.09 Fair CLR 31.1 -2.8 31.7 26.1 11% 29 75.77 1005.4
03 15:53 S 30 G 52 16.09 Fair CLR 31.1 -2.2 11% 29 75.82 1006.0
03 14:53 SE 30 G 57 16.09 Fair CLR 31.1 -2.8 11% 29 75.82 1005.9
03 13:53 S 28 G 52 16.09 Fair CLR 31.1 -2.8 11% 29 75.9 1006.7
03 12:53 S 33 G 52 16.09 Fair and Breezy CLR 30 -1.7 13% 28 75.92 1007.3
03 11:53 S 37 G 50 16.09 Fair and Breezy CLR 27.8 -1.7 14% 26 76 1008.5
03 10:53 S 30 16.09 Fair CLR 26.7 -0.6 26.7 19.4 17% 26 76.05 1009.1
03 09:53 SW 28 G 37 16.09 Fair CLR 25 0 19% 25 76.05 1009.3
03 08:53 SW 13 G 31 16.09 Fair CLR 22.8 0.6 23% 76.05 1009.5
03 07:53 SW 9 16.09 Fair CLR 21.7 0.6 25% 76.02 1009.1
03 06:53 S 13 G 31 16.09 Fair CLR 20.6 0 25% 76 1008.6
03 05:53 S 15 16.09 Fair CLR 19.4 -0.6 26% 75.97 1008.3
03 04:53 S 9 16.09 Fair CLR 20 -1.7 25 19.4 23% 75.97 1008.0
03 03:53 Vrbl 6 16.09 Fair CLR 20 -2.8 21% 75.95 1007.8
03 02:53 S 26 16.09 Fair CLR 22.8 -3.9 17% 75.95 1007.7
03 01:53 S 30 G 46 16.09 Fair CLR 23.3 -4.4 15% 75.97 1007.9
03 00:53 S 17 16.09 Fair CLR 23.3 -6.7 13% 75.97 1008.2
02 23:53 S 22 G 39 16.09 Fair CLR 23.9 -7.8 11% 24 75.97 1008.1
02 22:53 S 26 G 39 16.09 Fair CLR 25 -9.4 30.6 25 9% 24 75.95 1007.8
02 21:53 S 19 G 39 16.09 Fair CLR 26.1 -12.2 7% 25 75.95 1007.8
02 20:53 S 20 G 37 16.09 Fair CLR 26.1 -13.9 6% 25 75.97 1008.0
02 19:53 S 31 G 56 16.09 Fair CLR 27.8 -16.1 5% 26 75.92 1007.4
02 18:53 SE 33 G 46 16.09 Fair and Breezy CLR 28.3 -16.1 4% 27 75.9 1007.3
02 17:53 S 35 G 48 16.09 Fair and Breezy CLR 30 -14.4 5% 28 75.92 1007.4
02 16:53 S 39 G 54 16.09 Fair and Breezy CLR 30.6 -13.3 31.7 27.8 5% 29 75.95 1007.5
02 15:53 S 37 G 56 16.09 Fair and Breezy CLR 31.1 -13.3 5% 29 75.97 1007.9
02 14:53 S 37 G 57 16.09 Fair and Breezy CLR 31.1 -14.4 4% 29 76.02 1008.5
02 13:53 S 37 G 69 16.09 Fair and Breezy CLR 30.6 -14.4 4% 29 76.02 1008.7
02 12:53 S 37 G 67 16.09 Fair and Breezy CLR 29.4 -13.9 5% 28 76.1 1009.6
02 11:53 S 41 G 57 16.09 Fair and Breezy CLR 29.4 -12.2 6% 28 76.15 1010.5
02 10:53 S 30 G 52 16.09 Fair CLR 28.3 -12.2 28.3 21.7 6% 27 76.2 1011.0
02 09:53 S 31 G 48 16.09 Fair CLR 26.7 -11.7 7% 26 76.17 1010.7
02 08:53 S 28 G 43 16.09 Fair CLR 25.6 -10 9% 25 76.17 1011.0
02 07:53 S 26 G 43 16.09 Fair CLR 23.9 -10.6 9% 24 76.15 1010.5
02 06:53 S 26 16.09 Fair CLR 22.8 -10.6 10% 76.1 1009.7
02 05:53 SE 15 16.09 Fair CLR 21.7 -10 11% 76.02 1008.8
02 04:53 SE 26 G 41 16.09 Fair CLR 22.8 -10.6 25 22.8 10% 75.95 1007.7
02 03:53 SE 20 G 41 16.09 Fair CLR 23.3 -8.3 11% 75.95 1007.5
02 02:53 SE 20 G 43 16.09 Fair CLR 23.3 -7.2 12% 76 1008.4
02 01:53 SE 33 16.09 Fair and Breezy CLR 23.9 -6.1 13% 24 76 1008.3
02 00:53 SE 26 G 41 16.09 Fair CLR 23.9 -5 14% 24 76.02 1008.7
01 23:53 SE 17 16.09 Fair CLR 24.4 -7.2 12% 24 76.02 1008.6
01 22:53 S 20 16.09 Fair CLR 25 -8.9 31.1 24.4 10% 24 76.02 1008.5
01 21:53 SE 9 16.09 Fair CLR 25 -8.9 10% 24 76.02 1008.7
01 20:53 S 11 16.09 Fair CLR 25.6 -10.6 8% 25 75.97 1008.2
01 19:53 S 20 16.09 Fair CLR 27.2 -7.8 9% 26 75.92 1007.4
01 18:53 S 35 G 57 16.09 Fair and Breezy CLR 28.9 -7.8 8% 27 75.92 1007.6
01 17:53 S 33 G 57 16.09 Fair and Breezy CLR 30.6 -7.8 8% 29 75.95 1007.8
01 16:53 S 28 G 54 16.09 Fair CLR 31.1 -8.3 32.2 28.9 7% 29 75.97 1008.0
01 15:53 SE 33 G 54 16.09 Fair and Breezy CLR 31.7 -6.7 8% 30 76 1008.1
01 14:53 S 35 G 50 16.09 Fair and Breezy CLR 31.1 -5 9% 29 76.05 1008.6
01 13:53 S 31 G 48 16.09 Fair CLR 30.6 -4.4 10% 29 76.1 1009.3
01 12:53 S 26 G 41 16.09 Fair CLR 30.6 -5 9% 29 76.15 1010.1
01 11:53 S 37 G 56 16.09 Fair and Breezy CLR 30 -4.4 10% 28 76.2 1011.1
01 10:53 S 28 G 43 16.09 Fair CLR 28.9 -6.7 28.9 20.6 9% 27 76.25 1011.5
01 08:53 S 19 G 39 16.09 Fair CLR 26.7 -7.2 10% 26 76.2 1010.7
01 07:53 SE 24 G 43 16.09 Fair CLR 25 -6.1 12% 25 76.15 1010.3
01 06:53 S 17 16.09 Fair CLR 22.2 -7.8 13% 76.15 1010.5
01 05:53 S 19 16.09 Fair CLR 22.8 -8.9 11% 76.07 1009.3
01 04:53 SE 26 G 37 16.09 Fair CLR 23.3 -6.7 26.7 22.2 13% 76.05 1008.8
01 03:53 SE 24 G 33 16.09 Fair CLR 23.3 -5.6 14% 76.07 1008.9
01 02:53 SW 19 16.09 Fair CLR 23.9 -5.6 14% 24 76.05 1008.6
01 01:53 SW 24 G 39 16.09 Fair CLR 24.4 -6.1 13% 24 76.05 1008.5
01 00:53 Calm 16.09 Fair CLR 25.6 -4.4 13% 25 76.02 0.0
Date Time (pdt) Wind (kph) Vis. (km) Weather Sky Cond. Air Dwpt Max. Min. Relative Humidity Wind Chill (°C) Heat Index (°C) altimeter (cm) sea level (mb) 1 hr 3 hr 6 hr
6 hour
Temperature (ºC) Pressure Precipitation (cm)